Regional Weather Roundup
Issued by NWS Green Bay, WI

Home | Current Version | Previous Version | Text Only | Print | Product List | Glossary On
Versions: 1 2 3 4 5 6 7 8 9 10 11 12 13 14 15 16 17 18 19 20 21 22 23 24 25 26 27 28 29 30 31 32 33 34 35 36 37 38 39 40 41 42 43 44 45 46 47 48 49 50
000
ASUS43 KGRB 300011
RWRGRB

NORTH-CENTRAL AND NORTHEAST WISCONSIN REGIONAL WEATHER ROUNDUP
NATIONAL WEATHER SERVICE GREEN BAY WI
700 PM CDT THU SEP 29 2016

WIZ005-009-010>012-018-019-300100-
NORTH CENTRAL WISCONSIN

CITY           SKY/WX    TMP DP  RH WIND       PRES   REMARKS
IRONWOOD       CLOUDY    56  53  90 NE8       30.46S
MANITOWISH WTR CLEAR     56  55  95 NE5       30.45R
ARBOR VITAE    CLEAR     57  53  85 NE3       30.44S
EAGLE RIVER    CLEAR     56  53  88 N6        30.44R
LAND O LAKES   CLEAR     56  52  86 NE5       30.46S
RHINELANDER    CLEAR     60  55  83 N6        30.43R
PHILLIPS       CLEAR     59  53  79 NE7       30.41S
ANTIGO         CLEAR     57  50  76 CALM      30.40R
TOMAHAWK       CLEAR     59  53  79 CALM      30.41S
MERRILL        PTCLDY    61  54  76 N5        30.39S
$$

WIZ013-073-300100-
NORTHEAST WISCONSIN

CITY           SKY/WX    TMP DP  RH WIND       PRES   REMARKS
IRON MOUNTAIN  CLEAR     60  48  64 N7        30.41R
MARINETTE      CLEAR     62  57  83 NE9       30.38R
OCONTO         CLEAR     63  51  65 NE6       30.35S
$$

WIZ017-030-035>037-045-300100-
CENTRAL WISCONSIN

CITY           SKY/WX    TMP DP  RH WIND       PRES   REMARKS
MEDFORD        CLEAR     58  51  78 N5        30.39S
WAUSAU         CLEAR     64  50  60 NE6       30.36S
MOSINEE        PTCLDY    63  52  67 N6        30.38S
MARSHFIELD     CLEAR     65  49  56 NE7       30.36S
WISC RAPIDS    CLEAR     63  50  62 NE5       30.36S
STEVENS POINT  CLEAR     60  50  69 NE5       30.36S
WAUPACA        CLEAR     65  46  49 CALM      30.35R
SHAWANO        CLEAR     64  54  68 E3        30.36S
CLINTONVILLE   CLEAR     61  46  59 E3        30.35S
WAUTOMA        CLEAR     63  48  58 NE5       30.34R
$$

WIZ038-039-048-051-300100-
FOX VALLEY

CITY           SKY/WX    TMP DP  RH WIND       PRES   REMARKS
NWS GREEN BAY  CLEAR     62  54  74 NE14      30.34S
APPLETON       PTCLDY    63  46  55 NE13G20   30.33R
OSHKOSH        CLEAR     64  51  62 N16G23    30.32R
FOND DU LAC    CLEAR     63  53  70 NE12      30.32R
$$

WIZ022-050-052-300100-
EAST CENTRAL WISCONSIN

CITY           SKY/WX    TMP DP  RH WIND       PRES   REMARKS
EPHRAIM        FAIR      61  57  88 NE6       30.37R
WASHINGTON ISL FAIR      62  57  84 NE6       30.38R
STURGEON BAY   NOT AVBL
MANITOWOC      PTCLDY    62  56  80 MISG      30.32S
SHEBOYGAN      PTCLDY    61  56  83 N15       30.30S
$$

LMZ563-521-522-541>543-300100-
LAKESHORE

STATION/POSITION TIME  TEMP    WIND        PRES    VSBY  WAVE
                       AIR SEA DIR/SP/G                  HT/PER
                 (UTC) (F)     (DEG/KT/KT) (MB)    (MI)  (FT/S)
SHEBOYGAN LKSHOR 0000   61      10/ 19/ 21 1025.7F
KEWAUNEE LKSHORE 2300   61      30/  8/ 14 1026.5R
NORTHPORT PIER   2300   65      50/  8/ 13 1027.8S
N MID LAKE BUOY  2350   66 65   90/ 19/ 21 1027.7R         3/ 4
S GREEN BAY BUOY 2300   64 63   50/ 12/ 14 1027.0R
SISTER BAY LKSHO 2308   66     110/  5/  9   N/A
CHAMBERS ISLAND  2300   65      30/ 11/ 15 1027.8R
MENOMINEE LKSHOR 2300   64      40/ 13/ 14 1027.1R
$$



USA.gov is the U.S. government's official web portal to all federal, state and local government web resources and services.